Weather History for KMDD - October, 2013

Change the Weather History Date:

Thursday, October 31, 2013

  Actual Average (KMAF) Record (KMAF)
Temperature  
Mean Temperature 63 °F 60 °F  
Max Temperature 72 °F 73 °F 89 °F (1934)
Min Temperature 54 °F 46 °F 25 °F (1993)
Degree Days  
Heating Degree Days 2 6  
Month to date heating degree days 98  
Since 1 July heating degree days 109  
Cooling Degree Days 0 1  
Month to date cooling degree days 93  
Year to date cooling degree days 2272  
Growing Degree Days 13 (Base 50)    
Moisture  
Dew Point 31 °F    
Average Humidity 32    
Maximum Humidity 75    
Minimum Humidity 13    
Precipitation  
Precipitation 0.00 in 0.04 in 0.43 in (1998)
Month to date precipitation 1.73  
Year to date precipitation 13.31  
Snow  
Snow 0.00 in - - ()
Month to date snowfall  
Since 1 July snowfall  
Since 1 September snowfall  
Snow Depth -    
Sea Level Pressure  
Sea Level Pressure 29.93 in    
Wind  
Wind Speed 14 mph (West)    
Max Wind Speed 24 mph    
Max Gust Speed 34 mph    
Visibility 10 miles    
Events Rain    
T = Trace of Precipitation, MM = Missing Value Source: NWS Daily Summary

Daily Weather History Graph

Daily Weather History Graph

Search for Another Location

Airport or City:

Trip Planner

Search our weather history database for the weather conditions in past years. The results will help you decide how hot, cold, wet, or windy it might be!

Date:

Astronomy

Oct. 31, 2013 Rise Set
Actual Time 8:04 AM CDT 6:59 PM CDT
Civil Twilight 7:39 AM CDT 7:24 PM CDT
Nautical Twilight 7:10 AM CDT 7:53 PM CDT
Astronomical Twilight 6:41 AM CDT 8:21 PM CDT
Moon 5:06 AM CDT (10/31) 5:10 PM CDT (10/31)
Length of Visible Light 11h 45m
Length of Day
10h 54m
Waning Crescent, 10% of the Moon is Illuminated
Oct 31
Waning Crescent
Nov 3
New
Nov 9
First Quarter
Nov 17
Full
Nov 25
Last Quarter

Hourly Weather History & Observations

Time (CDT) Temp. Dew Point Humidity Pressure Visibility Wind Dir Wind Speed Gust Speed Precip Events Conditions
12:15 AM 66.4 °F 54.7 °F 66% 29.89 in 10.0 mi West 15.0 mph 29.9 mph N/A   Overcast
12:35 AM 66.7 °F 53.2 °F 62% 29.88 in 10.0 mi WSW 18.4 mph 23.0 mph N/A   Overcast
12:55 AM 68.7 °F 50.2 °F 52% 29.86 in 10.0 mi SW 13.8 mph 19.6 mph N/A Rain Light Rain
1:15 AM 68.5 °F 50.4 °F 52% 29.87 in 10.0 mi WSW 16.1 mph 21.9 mph N/A   Overcast
1:35 AM 68.0 °F 52.0 °F 56% 29.87 in 10.0 mi WSW 12.7 mph 19.6 mph N/A   Overcast
1:55 AM 67.6 °F 52.3 °F 58% 29.87 in 10.0 mi WSW 12.7 mph - N/A   Overcast
2:15 AM 67.1 °F 52.7 °F 60% 29.87 in 10.0 mi WSW 16.1 mph 19.6 mph N/A   Overcast
2:35 AM 66.6 °F 52.3 °F 60% 29.87 in 10.0 mi WSW 15.0 mph - N/A   Mostly Cloudy
2:55 AM 66.2 °F 51.8 °F 60% 29.88 in 10.0 mi WSW 12.7 mph - N/A   Scattered Clouds
3:15 AM 65.8 °F 52.0 °F 61% 29.88 in 10.0 mi WSW 16.1 mph - N/A   Clear
3:35 AM 64.9 °F 52.9 °F 65% 29.87 in 10.0 mi WSW 13.8 mph 19.6 mph N/A   Clear
3:55 AM 64.2 °F 53.6 °F 68% 29.89 in 10.0 mi West 15.0 mph 20.7 mph N/A   Scattered Clouds
4:15 AM 63.0 °F 54.1 °F 73% 29.89 in 10.0 mi WNW 13.8 mph - N/A   Clear
4:35 AM 61.7 °F 53.6 °F 75% 29.90 in 10.0 mi WNW 13.8 mph - N/A   Clear
4:55 AM 60.4 °F 49.1 °F 66% 29.91 in 10.0 mi NW 11.5 mph - N/A   Clear
5:15 AM 59.4 °F 41.9 °F 52% 29.91 in 10.0 mi NW 15.0 mph 19.6 mph N/A   Clear
5:35 AM 59.2 °F 35.2 °F 41% 29.92 in 10.0 mi NW 13.8 mph 25.3 mph N/A   Clear
5:55 AM 57.9 °F 32.2 °F 38% 29.93 in 10.0 mi NW 17.3 mph 21.9 mph N/A   Clear
6:15 AM 57.0 °F 30.6 °F 37% 29.94 in 10.0 mi NW 13.8 mph 21.9 mph N/A   Clear
6:35 AM 56.3 °F 29.5 °F 36% 29.94 in 10.0 mi WNW 13.8 mph 20.7 mph N/A   Clear
6:55 AM 55.8 °F 29.5 °F 37% 29.95 in 10.0 mi WNW 11.5 mph - N/A   Clear
7:15 AM 54.9 °F 29.5 °F 38% 29.96 in 10.0 mi WNW 11.5 mph 18.4 mph N/A   Clear
7:35 AM 54.9 °F 28.6 °F 37% 29.96 in 10.0 mi WNW 13.8 mph 19.6 mph N/A   Clear
7:55 AM 54.9 °F 28.4 °F 36% 29.97 in 10.0 mi WNW 12.7 mph - N/A   Clear
8:15 AM 54.5 °F 28.6 °F 37% 29.97 in 10.0 mi WNW 12.7 mph 21.9 mph N/A   Clear
8:35 AM 55.4 °F 27.5 °F 34% 29.99 in 10.0 mi NW 13.8 mph 18.4 mph N/A   Clear
8:55 AM 56.3 °F 27.9 °F 34% 30.00 in 10.0 mi WNW 13.8 mph - N/A   Clear
9:15 AM 57.2 °F 28.0 °F 33% 30.00 in 10.0 mi WNW 16.1 mph 23.0 mph N/A   Clear
9:35 AM 58.1 °F 28.2 °F 32% 30.01 in 10.0 mi WNW 16.1 mph - N/A   Clear
9:55 AM 59.5 °F 28.0 °F 30% 30.02 in 10.0 mi WNW 16.1 mph 23.0 mph N/A   Clear
10:15 AM 60.8 °F 27.0 °F 28% 30.02 in 10.0 mi WNW 21.9 mph 29.9 mph N/A   Clear
10:35 AM 62.2 °F 26.8 °F 26% 30.02 in 10.0 mi NW 21.9 mph 31.1 mph N/A   Clear
10:55 AM 63.7 °F 26.8 °F 25% 30.02 in 10.0 mi WNW 21.9 mph 31.1 mph N/A   Clear
11:15 AM 65.3 °F 23.5 °F 20% 30.02 in 10.0 mi WNW 21.9 mph 31.1 mph N/A   Clear
11:35 AM 66.2 °F 22.1 °F 19% 30.02 in 10.0 mi WNW 24.2 mph 34.5 mph N/A   Clear
11:55 AM 66.7 °F 21.7 °F 18% 30.01 in 10.0 mi NW 24.2 mph 31.1 mph N/A   Clear
12:15 PM 67.3 °F 23.7 °F 19% 30.01 in 10.0 mi NW 19.6 mph 28.8 mph N/A   Clear
12:35 PM 67.3 °F 24.4 °F 20% 30.01 in 10.0 mi NW 23.0 mph 28.8 mph N/A   Clear
12:55 PM 68.5 °F 23.7 °F 18% 30.00 in 10.0 mi NW 17.3 mph 24.2 mph N/A   Clear
1:15 PM 68.9 °F 23.7 °F 18% 30.00 in 10.0 mi NW 19.6 mph 29.9 mph N/A   Clear
1:35 PM 69.3 °F 24.3 °F 18% 29.99 in 10.0 mi WNW 17.3 mph 24.2 mph N/A   Clear
1:55 PM 69.3 °F 23.5 °F 18% 29.97 in 10.0 mi WNW 17.3 mph 23.0 mph N/A   Clear
2:15 PM 70.0 °F 21.7 °F 16% 29.96 in 10.0 mi WNW 13.8 mph 23.0 mph N/A   Clear
2:35 PM 70.7 °F 21.4 °F 16% 29.95 in 10.0 mi WNW 17.3 mph 21.9 mph N/A   Clear
2:55 PM 71.1 °F 21.0 °F 15% 29.94 in 10.0 mi NW 17.3 mph 21.9 mph N/A   Clear
3:15 PM 71.8 °F 21.0 °F 15% 29.93 in 10.0 mi West 13.8 mph 23.0 mph N/A   Clear
3:35 PM 72.0 °F 21.0 °F 15% 29.92 in 10.0 mi West 18.4 mph 24.2 mph N/A   Clear
3:55 PM 71.8 °F 20.8 °F 15% 29.92 in 10.0 mi West 13.8 mph 21.9 mph N/A   Clear
4:15 PM 72.5 °F 20.8 °F 14% 29.91 in 10.0 mi West 18.4 mph 23.0 mph N/A   Clear
4:35 PM 72.5 °F 20.3 °F 14% 29.91 in 10.0 mi West 17.3 mph 21.9 mph N/A   Clear
4:55 PM 72.3 °F 19.0 °F 13% 29.91 in 10.0 mi WNW 13.8 mph - N/A   Clear
5:15 PM 72.7 °F 19.8 °F 14% 29.91 in 10.0 mi WNW 13.8 mph 19.6 mph N/A   Clear
5:35 PM 72.0 °F 19.0 °F 13% 29.91 in 10.0 mi WNW 12.7 mph - N/A   Clear
5:55 PM 71.8 °F 19.6 °F 14% 29.91 in 10.0 mi West 11.5 mph 18.4 mph N/A   Clear
6:15 PM 71.2 °F 19.4 °F 14% 29.90 in 10.0 mi West 8.1 mph - N/A   Clear
6:35 PM 70.3 °F 19.2 °F 14% 29.90 in 10.0 mi WSW 9.2 mph - N/A   Clear
6:55 PM 68.9 °F 19.2 °F 15% 29.91 in 10.0 mi WSW 5.8 mph - N/A   Clear
7:15 PM 67.3 °F 23.0 °F 19% 29.91 in 10.0 mi SW 4.6 mph - N/A   Clear
7:35 PM 66.0 °F 24.6 °F 21% 29.91 in 10.0 mi SW 3.5 mph - N/A   Clear
7:55 PM 65.5 °F 25.0 °F 22% 29.91 in 10.0 mi Calm Calm - N/A   Clear
8:15 PM 64.0 °F 24.8 °F 23% 29.91 in 10.0 mi Calm Calm - N/A   Clear
8:35 PM 61.3 °F 28.6 °F 29% 29.91 in 10.0 mi SSW 4.6 mph - N/A   Clear
8:55 PM 60.4 °F 28.2 °F 29% 29.91 in 10.0 mi Calm Calm - N/A   Clear
9:15 PM 59.4 °F 29.1 °F 32% 29.91 in 10.0 mi South 3.5 mph - N/A   Clear
9:35 PM 57.0 °F 30.7 °F 37% 29.91 in 10.0 mi SSW 5.8 mph - N/A   Clear
9:55 PM 60.3 °F 26.1 °F 27% 29.91 in 10.0 mi SSW 5.8 mph - N/A   Clear
10:15 PM 60.3 °F 25.9 °F 27% 29.91 in 10.0 mi SW 5.8 mph - N/A   Clear
10:35 PM 61.5 °F 23.4 °F 23% 29.91 in 10.0 mi WSW 8.1 mph - N/A   Clear
10:55 PM 62.4 °F 21.7 °F 21% 29.91 in 10.0 mi SW 9.2 mph - N/A   Clear
11:15 PM 61.2 °F 21.9 °F 22% 29.91 in 10.0 mi SW 9.2 mph - N/A   Clear
11:35 PM 59.2 °F 22.6 °F 25% 29.92 in 10.0 mi SW 8.1 mph - N/A   Clear
11:55 PM 59.5 °F 21.7 °F 23% 29.92 in 10.0 mi WSW 9.2 mph - N/A   Clear